Auburn, AL

4:46 AM CDT on May 25, 2018 (GMT -0500)
Auburn-opelika-pitts

Weather History for KAUO - November, 2011

Change the Weather History Date:

Sunday, November 27, 2011

  Actual Average Record
Temperature  
Mean Temperature 67 °F -  
Max Temperature 72 °F - 79 °F (1973)
Min Temperature 61 °F - 25 °F (1970)
Degree Days  
Heating Degree Days 0    
Month to date heating degree days 184  
Since 1 July heating degree days 274  
Growing Degree Days 16 (Base 50)    
Moisture  
Dew Point 56 °F    
Average Humidity 72    
Maximum Humidity 94    
Minimum Humidity 53    
Precipitation  
Precipitation 0.18 in - 2.21 in (2003)
Month to date precipitation 2.30  
Year to date precipitation 35.39  
Sea Level Pressure  
Sea Level Pressure 29.98 in    
Wind  
Wind Speed 12 mph (SSE)    
Max Wind Speed 17 mph    
Max Gust Speed 30 mph    
Visibility 10 miles    
Events      
T = Trace of Precipitation, MM = Missing Value Source: NWS Daily Summary

Daily Weather History Graph

Daily Weather History Graph

Search for Another Location

Airport or City:

Astronomy

Nov. 27, 2011 Rise Set
Actual Time 6:22 AM CST 4:36 PM CST
Civil Twilight 5:55 AM CST 5:02 PM CST
Nautical Twilight 5:25 AM CST 5:33 PM CST
Astronomical Twilight 4:55 AM CST 6:02 PM CST
Moon 8:44 AM CST (11/27) 7:14 PM CST (11/27)
Length of Visible Light 11h 07m
Length of Day
10h 14m
Waxing Crescent, 8% of the Moon is Illuminated
Nov 27
Waxing Crescent
Dec 2
First Quarter
Dec 10
Full
Dec 17
Last Quarter
Dec 24
New

Hourly Weather History & Observations

Time (CST) Temp. Dew Point Humidity Pressure Visibility Wind Dir Wind Speed Gust Speed Precip Events Conditions
12:15 AM 60.8 °F 53.6 °F 77% 30.09 in 10.0 mi SE 9.2 mph - N/A   Overcast
12:35 AM 62.6 °F 53.6 °F 72% 30.09 in 10.0 mi SSE 10.4 mph - N/A   Overcast
12:55 AM - - N/A% 30.08 in 10.0 mi SSE 10.4 mph 17.3 mph N/A   Overcast
1:15 AM - - N/A% 30.08 in 10.0 mi SSE 9.2 mph - N/A   Mostly Cloudy
1:35 AM - - N/A% 30.07 in 10.0 mi SE 11.5 mph 16.1 mph N/A   Mostly Cloudy
1:55 AM - - N/A% 30.06 in 10.0 mi SE 10.4 mph 16.1 mph N/A   Scattered Clouds
2:15 AM - - N/A% 30.06 in 10.0 mi SE 11.5 mph - N/A   Scattered Clouds
2:35 AM - - N/A% 30.05 in 10.0 mi SE 11.5 mph 20.7 mph N/A   Overcast
2:55 AM - - N/A% 30.05 in 10.0 mi SE 9.2 mph 18.4 mph N/A   Overcast
3:15 AM 62.6 °F 55.4 °F 77% 30.05 in 10.0 mi SE 12.7 mph 20.7 mph N/A   Mostly Cloudy
3:35 AM 62.6 °F 55.4 °F 77% 30.05 in 10.0 mi SSE 12.7 mph 17.3 mph N/A   Mostly Cloudy
3:55 AM 62.6 °F 55.4 °F 77% 30.04 in 10.0 mi SSE 15.0 mph 20.7 mph N/A   Overcast
4:15 AM 62.6 °F 55.4 °F 77% 30.04 in 10.0 mi SSE 12.7 mph - N/A   Overcast
4:35 AM 62.6 °F 55.4 °F 77% 30.03 in 10.0 mi SSE 15.0 mph 23.0 mph N/A   Overcast
5:15 AM 62.6 °F 55.4 °F 77% 30.03 in 10.0 mi SSE 15.0 mph 19.6 mph N/A   Overcast
5:35 AM 62.6 °F 55.4 °F 77% 30.03 in 10.0 mi SSE 15.0 mph 23.0 mph N/A   Overcast
5:55 AM 64.4 °F 55.4 °F 73% 30.03 in 10.0 mi SE 12.7 mph 20.7 mph N/A   Overcast
6:15 AM 64.4 °F 55.4 °F 73% 30.03 in 10.0 mi SSE 12.7 mph 18.4 mph N/A   Overcast
6:35 AM 64.4 °F 55.4 °F 73% 30.03 in 10.0 mi SE 12.7 mph 23.0 mph N/A   Overcast
6:55 AM 64.4 °F 55.4 °F 73% 30.03 in 10.0 mi SE 15.0 mph 18.4 mph N/A   Overcast
7:15 AM 62.6 °F 55.4 °F 77% 30.03 in 10.0 mi SSE 12.7 mph - N/A   Overcast
7:35 AM 64.4 °F 53.6 °F 68% 30.03 in 10.0 mi SSE 12.7 mph 20.7 mph N/A   Overcast
7:55 AM 64.4 °F 53.6 °F 68% 30.04 in 10.0 mi SSE 13.8 mph - N/A   Overcast
8:15 AM 64.4 °F 53.6 °F 68% 30.04 in 10.0 mi SSE 11.5 mph - N/A   Overcast
8:35 AM 64.4 °F 53.6 °F 68% 30.04 in 10.0 mi SSE 12.7 mph 18.4 mph N/A   Overcast
9:15 AM 66.2 °F 53.6 °F 64% 30.03 in 10.0 mi SSE 11.5 mph 17.3 mph N/A   Overcast
9:35 AM 68.0 °F 53.6 °F 60% 30.02 in 10.0 mi SSE 16.1 mph 24.2 mph N/A   Overcast
9:55 AM 68.0 °F 53.6 °F 60% 30.02 in 10.0 mi SSE 13.8 mph 19.6 mph N/A   Overcast
10:15 AM 69.8 °F 53.6 °F 56% 30.01 in 10.0 mi SSE 18.4 mph 23.0 mph N/A   Overcast
10:55 AM 69.8 °F 53.6 °F 56% 30.00 in 10.0 mi South 17.3 mph 29.9 mph N/A   Overcast
11:15 AM 69.8 °F 53.6 °F 56% 29.99 in 10.0 mi SSE 15.0 mph 23.0 mph N/A   Overcast
11:55 AM 69.8 °F 53.6 °F 56% 29.97 in 10.0 mi South 16.1 mph 23.0 mph N/A   Overcast
12:15 PM 69.8 °F 53.6 °F 56% 29.96 in 10.0 mi South 13.8 mph 19.6 mph N/A   Overcast
12:35 PM 69.8 °F 53.6 °F 56% 29.95 in 10.0 mi SSE 12.7 mph 18.4 mph N/A   Overcast
1:15 PM 71.6 °F 53.6 °F 53% 29.93 in 10.0 mi South 12.7 mph 19.6 mph N/A   Overcast
1:35 PM 71.6 °F 53.6 °F 53% 29.92 in 10.0 mi SSE 13.8 mph - N/A   Overcast
1:55 PM 71.6 °F 53.6 °F 53% 29.92 in 10.0 mi SSE 16.1 mph 21.9 mph N/A   Overcast
2:15 PM 71.6 °F 53.6 °F 53% 29.91 in 10.0 mi SSE 11.5 mph - N/A   Overcast
2:35 PM 71.6 °F 53.6 °F 53% 29.90 in 10.0 mi SSE 11.5 mph 19.6 mph N/A   Overcast
2:55 PM 66.2 °F 57.2 °F 73% 29.91 in 10.0 mi SSE 13.8 mph - 0.01 in   Overcast
3:15 PM 66.2 °F 57.2 °F 73% 29.89 in 10.0 mi SSE 9.2 mph - 0.01 in   Overcast
3:35 PM 66.2 °F 57.2 °F 73% 29.89 in 10.0 mi SSE 6.9 mph - 0.01 in   Overcast
3:55 PM 66.2 °F 57.2 °F 73% 29.89 in 10.0 mi SSE 10.4 mph - 0.01 in   Overcast
4:15 PM 66.2 °F 57.2 °F 73% 29.89 in 10.0 mi SSE 8.1 mph - N/A   Overcast
4:35 PM 64.4 °F 57.2 °F 77% 29.88 in 10.0 mi SSE 11.5 mph - 0.01 in   Overcast
4:55 PM 64.4 °F 57.2 °F 77% 29.88 in 10.0 mi SE 5.8 mph - 0.01 in   Overcast
5:15 PM 64.4 °F 59.0 °F 83% 29.89 in 10.0 mi SSE 8.1 mph - N/A   Overcast
5:35 PM 62.6 °F 59.0 °F 88% 29.89 in 10.0 mi South 5.8 mph - 0.01 in   Overcast
5:55 PM 62.6 °F 60.8 °F 94% 29.90 in 10.0 mi South 5.8 mph - 0.02 in   Overcast
6:15 PM 62.6 °F 60.8 °F 94% 29.90 in 10.0 mi SSE 5.8 mph - N/A   Overcast
6:35 PM 64.4 °F 59.0 °F 83% 29.90 in 10.0 mi SSE 17.3 mph - 0.01 in   Overcast
7:15 PM 62.6 °F 59.0 °F 88% 29.89 in 10.0 mi SSE 9.2 mph - N/A   Overcast
7:35 PM 62.6 °F 59.0 °F 88% 29.88 in 10.0 mi SE 5.8 mph - N/A   Overcast
7:55 PM 62.6 °F 59.0 °F 88% 29.86 in 10.0 mi SE 10.4 mph - N/A   Overcast
8:15 PM 62.6 °F 57.2 °F 82% 29.86 in 10.0 mi SSE 8.1 mph - N/A   Overcast
8:35 PM 62.6 °F 57.2 °F 82% 29.88 in 8.0 mi South 10.4 mph - N/A   Overcast
8:55 PM 62.6 °F 57.2 °F 82% 29.87 in 10.0 mi South 9.2 mph - 0.04 in   Overcast
9:15 PM 62.6 °F 57.2 °F 82% 29.87 in 9.0 mi South 12.7 mph - 0.03 in   Overcast
9:35 PM 60.8 °F 57.2 °F 88% 29.87 in 9.0 mi South 12.7 mph 19.6 mph 0.07 in   Overcast
9:55 PM 60.8 °F 57.2 °F 88% 29.86 in 10.0 mi SSE 11.5 mph 20.7 mph 0.09 in   Overcast
10:15 PM 60.8 °F 59.0 °F 94% 29.86 in 8.0 mi SSE 12.7 mph 19.6 mph 0.03 in   Overcast
10:35 PM 60.8 °F 59.0 °F 94% 29.86 in 7.0 mi South 10.4 mph - 0.07 in   Overcast
11:15 PM 60.8 °F 59.0 °F 94% 29.84 in 5.0 mi South 16.1 mph 23.0 mph N/A   Overcast
11:35 PM 60.8 °F 59.0 °F 94% 29.82 in 10.0 mi SSE 17.3 mph 23.0 mph N/A   Overcast
11:55 PM 60.8 °F 59.0 °F 94% 29.82 in 10.0 mi SSE 13.8 mph - N/A   Overcast